DW4509 Weather Reports


Display with metric or nautical units.
time (UTC)temp
F
wind
direction
speed
MPH
gust
MPH
rain 1hr
in
rain 24hr
in
rain mn
in
humidity
%
barometer
mb
20260906082241 60 304 0.0 0.0 0.00 0.00 0.00 80 1021.5
20260906081305 60 18 0.0 0.0 0.00 0.00 0.00 82 1021.5
20260906080314 60 18 0.0 0.0 0.00 0.00 0.00 82 1021.5
20260906075244 59 18 0.0 0.0 0.00 0.00 0.00 82 1021.6
20260906074236 59 69 0.0 0.0 0.00 0.00 0.00 84 1021.5
20260906072104 58 70 0.0 0.0 0.00 0.00 0.00 85 1021.6
20260906065919 59 74 0.0 0.0 0.00 0.00 0.00 86 1021.8
20260906064914 58 68 0.0 0.0 0.00 0.00 0.00 87 1021.7
20260906063911 58 69 0.0 0.0 0.00 0.00 0.00 88 1021.8
20260906062917 57 69 0.0 0.0 0.00 0.00 0.00 88 1021.9
20260906061853 56 69 0.0 0.0 0.00 0.00 0.00 90 1021.8
20260906060848 54 69 0.0 0.0 0.00 0.00 0.00 90 1021.9
20260906055825 53 69 0.0 0.0 0.00 0.00 0.00 90 1022.1
20260906053646 53 70 0.0 0.0 0.00 0.00 0.00 89 1022.2
20260906052632 53 70 0.0 0.0 0.00 0.00 0.00 89 1022.2
20260906051632 53 70 0.0 0.0 0.00 0.00 0.00 89 1022.2
20260906050651 53 70 0.0 0.0 0.00 0.00 0.00 90 1022.2
20260906045630 53 70 0.0 0.0 0.00 0.00 0.00 89 1022.3
20260906044618 53 70 0.0 0.0 0.00 0.00 0.00 89 1022.5
20260906043641 53 70 0.0 0.0 0.00 0.00 0.00 90 1022.5
20260906042701 53 70 0.0 0.0 0.00 0.00 0.00 90 1022.5
20260906041650 53 70 0.0 0.0 0.00 0.00 0.00 90 1022.5
20260906040709 53 72 0.0 0.0 0.00 0.00 0.00 90 1022.7
20260906035735 53 72 0.0 0.0 0.00 0.00 0.00 90 1022.8
20260906034754 52 73 0.0 0.0 0.00 0.00 0.00 90 1022.9
20260906033807 52 72 0.0 0.0 0.00 0.00 0.00 89 1022.9
20260906032828 52 73 0.0 0.0 0.00 0.00 0.00 89 1023.0
20260906031820 52 73 0.0 0.0 0.00 0.00 0.00 89 1023.1
20260906030754 52 73 0.0 0.0 0.00 0.00 0.00 89 1023.2
20260906023503 52 73 0.0 0.0 0.00 0.00 0.00 89 1023.5
20260906022440 52 74 0.0 0.0 0.00 0.00 0.00 89 1023.7
20260906021432 52 74 0.0 0.0 0.00 0.00 0.00 88 1023.8
20260906020421 52 75 0.0 0.0 0.00 0.00 0.00 88 1023.8
20260906015421 52 75 0.0 0.0 0.00 0.00 0.00 88 1024.0
20260906014410 52 75 0.0 0.0 0.00 0.00 0.00 88 1024.1
20260906013356 53 75 0.0 0.0 0.00 0.00 0.00 88 1024.1
20260906012409 53 75 0.0 0.0 0.00 0.00 0.00 87 1024.3
20260906011413 53 75 0.0 0.0 0.00 0.00 0.00 88 1024.5
20260906010347 53 75 0.0 0.0 0.00 0.00 0.00 87 1024.7
20260906005356 53 75 0.0 0.0 0.00 0.00 0.00 87 1024.8
20260906004322 53 75 0.0 0.0 0.00 0.00 0.00 87 1024.8
20260906003331 53 75 0.0 0.0 0.00 0.00 0.00 86 1024.9
20260906002312 54 75 0.0 0.0 0.00 0.00 0.00 86 1025.0
20260905234954 55 75 0.0 0.0 0.00 0.00 0.00 84 1025.2
20260905233935 55 75 0.0 0.0 0.00 0.00 0.00 84 1025.2
20260905232958 55 75 0.0 0.0 0.00 0.00 0.00 85 1025.3
20260905232002 55 75 0.0 0.0 0.00 0.01 0.00 84 1025.3
20260905231026 55 75 0.0 0.0 0.00 0.01 0.00 84 1025.3
20260905230003 55 75 0.0 0.0 0.00 0.01 0.01 84 1025.3
20260905224931 55 75 0.0 0.0 0.00 0.01 0.01 84 1025.3
20260905223916 55 75 0.0 0.0 0.00 0.01 0.01 83 1025.3
20260905222903 55 75 0.0 0.0 0.00 0.01 0.01 84 1025.2
20260905221855 55 75 0.0 0.0 0.00 0.01 0.01 84 1025.2
20260905220857 55 75 0.0 0.0 0.00 0.01 0.01 83 1025.2
20260905213644 55 75 0.0 0.0 0.00 0.01 0.01 82 1025.2
20260905212703 55 75 0.0 0.0 0.00 0.01 0.01 82 1025.3
20260905210531 56 75 0.0 0.0 0.00 0.01 0.01 83 1025.3
20260905205514 55 75 0.0 0.0 0.00 0.01 0.01 82 1025.2
20260905204445 55 75 0.0 0.0 0.00 0.01 0.01 82 1025.4
20260905202249 56 75 0.0 0.0 0.00 0.01 0.01 81 1025.0
20260905201302 56 75 0.0 0.0 0.00 0.01 0.01 81 1024.9
20260905200311 56 75 0.0 0.0 0.00 0.01 0.01 80 1024.8
20260905194123 57 75 0.0 0.0 0.00 0.01 0.01 80 1024.5
20260905193048 57 75 0.0 0.0 0.00 0.01 0.01 79 1024.7
20260905192041 58 75 0.0 0.0 0.00 0.01 0.01 78 1024.8
20260905185854 59 75 0.0 0.0 0.00 0.01 0.01 76 1024.6
20260905184837 60 75 0.0 0.0 0.00 0.01 0.01 74 1024.5
20260905183848 60 75 0.0 0.0 0.00 0.01 0.01 73 1024.8
20260905182839 61 75 0.0 0.0 0.00 0.01 0.01 72 1024.6
20260905181820 62 75 0.0 0.0 0.00 0.01 0.01 69 1024.7
20260905180748 63 75 0.0 0.0 0.00 0.01 0.01 68 1024.6
20260905175809 64 255 0.0 0.0 0.00 0.01 0.01 66 1024.5
20260905174806 65 56 0.0 0.0 0.00 0.01 0.01 62 1024.5
20260905173800 65 272 0.0 3.0 0.00 0.01 0.01 64 1024.4
20260905172730 65 248 0.0 0.0 0.00 0.01 0.01 63 1024.5
20260905170622 65 283 0.0 0.0 0.00 0.01 0.01 63 1024.5
20260905163302 65 268 0.0 3.0 0.00 0.01 0.01 61 1024.2
20260905162319 66 225 0.0 4.0 0.00 0.01 0.01 60 1024.2
20260905161322 66 277 0.0 10.0 0.00 0.01 0.01 60 1024.3
20260905160256 66 281 1.0 10.0 0.00 0.01 0.01 58 1024.3
20260905154111 66 281 1.0 9.0 0.00 0.01 0.01 61 1024.2
20260905153046 66 269 0.0 7.0 0.00 0.01 0.01 61 1024.2
20260905152105 67 287 1.0 7.0 0.00 0.01 0.01 62 1024.3
20260905145926 68 217 1.0 7.0 0.00 0.01 0.01 58 1024.2
20260905144912 67 317 1.0 6.0 0.00 0.01 0.01 60 1024.0
20260905143924 67 254 1.0 6.0 0.00 0.01 0.01 60 1024.0
20260905142902 67 254 0.0 3.0 0.00 0.01 0.01 61 1023.8
20260905141912 67 272 0.0 5.0 0.00 0.01 0.01 61 1023.8
20260905135737 67 262 1.0 4.0 0.00 0.01 0.01 60 1023.8
20260905134738 67 23 0.0 3.0 0.00 0.01 0.01 60 1023.8
20260905133719 67 283 0.0 4.0 0.00 0.01 0.01 60 1023.7
20260905132704 67 108 0.0 4.0 0.00 0.01 0.01 61 1023.7
20260905131712 66 317 0.0 3.0 0.00 0.01 0.01 62 1023.7
20260905125530 67 246 1.0 10.0 0.00 0.01 0.01 58 1023.4
20260905124508 66 122 1.0 10.0 0.00 0.01 0.01 61 1023.3
20260905122334 65 200 1.0 6.0 0.00 0.01 0.01 64 1023.3
20260905121307 65 240 0.0 3.0 0.00 0.01 0.01 66 1023.1
20260905120242 65 233 0.0 6.0 0.00 0.01 0.01 65 1023.0
20260905115306 65 274 0.0 6.0 0.00 0.01 0.01 64 1023.0
20260905114314 65 350 0.0 8.0 0.00 0.01 0.01 63 1022.9
20260905113302 64 134 1.0 8.0 0.00 0.01 0.01 66 1023.0
20260905112247 64 251 0.0 4.0 0.00 0.01 0.01 65 1022.9
20260905111232 65 281 1.0 10.0 0.00 0.01 0.01 64 1023.0
20260905110229 65 281 1.0 10.0 0.00 0.01 0.01 62 1022.8
20260905104012 64 287 1.0 13.0 0.00 0.01 0.01 64 1022.7
20260905102946 64 200 1.0 13.0 0.00 0.01 0.01 64 1022.8
20260905101946 64 342 1.0 7.0 0.00 0.01 0.01 65 1022.6
20260905101002 63 243 1.0 11.0 0.00 0.01 0.01 67 1022.6
20260905100019 63 272 2.0 11.0 0.00 0.01 0.01 66 1022.6
20260905093859 63 177 0.0 9.0 0.00 0.01 0.01 67 1022.4
20260905092854 62 83 1.0 5.0 0.00 0.01 0.01 67 1022.2
20260905091845 62 247 1.0 8.0 0.00 0.01 0.01 68 1022.1
20260905090847 62 265 1.0 10.0 0.00 0.01 0.01 69 1022.0
20260905085907 62 259 2.0 12.0 0.00 0.01 0.01 69 1021.9
20260905082647 61 260 2.0 12.0 0.00 0.03 0.01 70 1021.5